DMSP 5D-2 F11 DEB

Satellite information

Favourite Embed

Satellite Type and Status

DEBRISIN ORBIT

Key statistics

Satellite DMSP 5D-2 F11 DEB at a glance.

Uptime

12276

Days in orbit

Revolutions

≈ 14.9

Per day

Orbit

SSO

Sun Synchronous Orbit

Inclination

98.5

Latest

Satellite identification and parameters

Extended collection of information and parameters for DMSP 5D-2 F11 DEB.

Object identification

Identified? True

Debris? True

Object name: DMSP 5D-2 F11 DEB

International designator: 1991-082AW

Object number (NORAD): 28333

Object ID (CCSDS): 28333

Country: UNITED STATES OF AMERICA (US)

Current information (Y/N): Y

RCS size: SMALL

Orbital parameters

Period: 96.873 minutes

Inclination: 98.5262 deg

SMA: 6987.077 km

Apoapsis: 610.47 km

Periapsis: 607.413 km

RAAN: 284.9078 deg

Eccentricy: 0.0002187

Argument of periapsis: 239.6268 deg

Mean anomaly: 150.8208 deg

Mean motion: 14.86481504 rev/day

Mean motion (dot): 0.00032883 rev/day2

B* drag term: 0.0037089 1/REarth

Two-line elements (TLE)

Creation date: July 7, 2025, 2:26 p.m.

Reference frame: TEME

Reference center: EARTH

Epoch: July 5, 2025, 5:39 a.m. UTC

TLE line 0: 0 DMSP 5D-2 F11 DEB

TLE line 1: 1 28333U 91082AW 25186.23579296 .00032883 00000-0 37089-2 0 9997

TLE line 2: 2 28333 98.5262 284.9078 0002187 239.6268 150.8208 14.86481504105499

Live tracking on map

Real-time ground track for satellite DMSP 5D-2 F11 DEB.

In-orbit conjunctions

A list of the most updated potential collisions computed for object DMSP 5D-2 F11 DEB.

Target Orbit TCA Probability of collision Miss distance Type
PEGASUS DEB LEO 2024-09-26 23:01:02 0.0002344948 210.0 (m) DEBRIS

Associated space launch

Military meteorological satellite

DMSP 5D-2 F11 DEB was lifted into orbit during the mission ‘Atlas E | DMSP-5D2 F11’, on board a Atlas E space rocket.

The launch took place on Nov. 28, 1991, 1:23 p.m. from Space Launch Complex 3W.

For more information about the launch, click the button.

Launch to space Atlas E | DMSP-5D2 F11
Atlas E | DMSP-5D2 F11

Agency: N/A

Status: Launch Successful

Launch date: Nov. 28, 1991, 1:23 p.m. UTC

Rocket: Atlas E

Launch pad: Space Launch Complex 3W

Location: Vandenberg SFB, CA, USA

...

Latest news about this satellite

There are no fresh news available about this satellite. Check back as we update our databases every day.


Newsletter sign-up

Weekly statistics, charts and insights to help you stay on top of the space industry.